Flag for Spain Weather past 2 weeks in Santa Cruz de Tenerife, Canary Islands, Spain

Now
57 °F

Scattered clouds.


Feels Like: 53 °F
Forecast: N/A
Wind: 18 mph from West

Location: Tenerife / Los Rodeos

Current Time: Feb 28, 2015 at 4:20:48 PM

Latest Report: Feb 28, 2015 at 4:00 PM


Visibility: N/A

Pressure: 30.36 "Hg

Humidity: 82%

Dew point: 52 °F

Location of Santa Cruz de TenerifeLocation

Historic Weather in Santa Cruz de Tenerife — Graph

°F

Santa Cruz de Tenerife temperature yesterday

Maximum temperature yesterday: 59 °F (at 12:30 PM)
Minimum temperature yesterday: 52 °F (at 6:00 AM)
Average temperature yesterday: 55 °F

Past Weeks' High & Low Weather Summary

 TemperatureHumidityPressure
High63 °F (Feb 25, 2:30 PM)100% (Feb 15, 8:00 AM)30.42 "Hg (Feb 15, 8:00 AM)
Low48 °F (Feb 14, 10:30 PM)55% (Feb 25, 6:00 PM)30.18 "Hg (Feb 18, 2:00 PM)
Average54 °F87%30.30 "Hg
* Reported Feb 13 3:00 PM — Feb 28 3:00 PM, Santa Cruz de Tenerife, Weather by CustomWeather, © 2015

Note: Actual official high and low records may vary slightly from our data, if they occured in-between our weather recording intervals... More about our weather records

Advertising

Santa Cruz de Tenerife weather history for previous 24 hours

 ConditionsComfort  
Time TempWeatherWind HumidityBarometerVisibility
3:00 PM
Sat, Feb 28
57 °FScattered clouds.21 mph88%30.36 "HgN/A
2:30 PM59 °FScattered clouds.20 mph82%30.36 "HgN/A
2:00 PM59 °FPassing clouds.21 mph77%30.39 "HgN/A
1:30 PM57 °FPassing clouds.22 mph82%30.39 "HgN/A
1:00 PM57 °FScattered clouds.22 mph82%30.39 "HgN/A
12:30 PM57 °FScattered clouds.23 mph82%30.42 "HgN/A
12:00 PM57 °FScattered clouds.20 mph82%30.42 "HgN/A
11:30 AM57 °FScattered clouds.17 mph77%30.42 "HgN/A
11:00 AM55 °FScattered clouds.15 mph82%30.42 "HgN/A
10:30 AM54 °FPartly sunny.17 mph94%30.42 "HgN/A
10:00 AM54 °FPartly sunny.16 mph88%30.42 "HgN/A
9:30 AM54 °FPartly sunny.15 mph94%30.42 "HgN/A
9:00 AM54 °FPartly sunny.23 mph94%30.39 "HgN/A
8:30 AM54 °FPartly sunny.23 mph94%30.36 "HgN/A
8:00 AM54 °FPartly sunny.21 mph94%30.36 "HgN/A
7:30 AM52 °FPassing clouds.22 mph100%30.36 "HgN/A
7:00 AM52 °FPassing clouds.21 mph94%30.36 "HgN/A
6:30 AM52 °FLight rain. Passing clouds.20 mph100%30.36 "Hg6 mi
6:00 AM52 °FPassing clouds.14 mph94%30.36 "HgN/A
11:00 PM
Fri, Feb 27
54 °FCool.7 mph94%30.42 "HgN/A
10:30 PM54 °FPartly cloudy.9 mph94%30.42 "HgN/A
10:00 PM54 °FPassing clouds.6 mph94%30.42 "Hg4 mi
9:30 PM54 °FPassing clouds.10 mph94%30.42 "HgN/A
9:00 PM54 °FPassing clouds.12 mph94%30.42 "HgN/A
8:30 PM54 °FPassing clouds.13 mph94%30.42 "HgN/A
8:00 PM52 °FPassing clouds.14 mph94%30.39 "HgN/A
7:30 PM52 °FPassing clouds.13 mph94%30.39 "HgN/A
7:00 PM54 °FPartly sunny.9 mph88%30.39 "HgN/A
6:30 PM54 °FScattered clouds.14 mph88%30.39 "HgN/A
6:00 PM54 °FPassing clouds.16 mph88%30.39 "HgN/A
5:30 PM55 °FPassing clouds.14 mph82%30.36 "HgN/A
5:00 PM57 °FPassing clouds.15 mph82%30.36 "HgN/A
4:30 PM57 °FPassing clouds.16 mph82%30.36 "HgN/A
4:00 PM57 °FPassing clouds.14 mph82%30.36 "HgN/A
Weather by CustomWeather, © 2015

See weather overviewHow to use our weather pages